Simultaneous Nadir Overpasses (SNOs) Predictions

Prediction of SNOs between AQUA and NPP Satellite Orbit:

Table of predicted SNOs for the next 14.0 days since TLE Epoch: 4/3/2020
Index Date (AQUA) Time (AQUA) Lat,Lon (AQUA) SZA (AQUA ) Date (NPP) Time (NPP) Lat,Lon (NPP) SZA (NPP ) Distance(km) Time Diff (sec)
1 04/03/2020 22:38:24 -76.12,-100.18 88.44 04/03/2020 22:38:10 -76.12,-100.19 88.42 0.55 14
2 04/03/2020 23:27:34 76.89, 70.07 90.65 04/03/2020 23:28:37 76.89, 69.99 90.61 2.05 63
3 04/06/2020 14:05:36 75.58,-153.55 91.16 04/06/2020 14:04:30 75.59,-153.48 91.20 2.31 66
4 04/06/2020 14:54:46 -76.42, 16.65 89.81 04/06/2020 14:54:58 -76.41, 16.63 89.82 0.87 12
5 04/09/2020 06:21:58 75.93, -36.66 89.76 04/09/2020 06:21:18 75.93, -36.59 89.77 2.28 40
6 04/09/2020 07:11:09 -76.70, 133.50 91.17 04/09/2020 07:11:47 -76.70, 133.48 91.19 0.55 38
7 04/11/2020 22:38:27 75.91, 79.18 88.77 04/11/2020 22:38:14 75.90, 79.08 88.81 2.96 13
8 04/11/2020 23:27:31 -77.02,-109.46 92.55 04/11/2020 23:28:35 -77.02,-109.45 92.61 0.51 64
9 04/14/2020 14:05:39 -75.46, 26.09 91.69 04/14/2020 14:04:35 -75.46, 26.12 91.64 0.89 64
10 04/14/2020 14:54:47 76.34,-163.61 87.30 04/14/2020 14:55:00 76.33,-163.67 87.30 1.58 13
11 04/17/2020 06:21:56 -75.98, 143.50 93.24 04/17/2020 06:21:18 -75.99, 143.59 93.23 2.73 38




NCC Satellite Simultaneous Nadir Overpasses (SNOs) Prediction Service
